metlocid,date_time,avg_lwradin,std_lwradin,min_lwradin,max_lwradin,n_lwradin,avg_lwradin2,std_lwradin2,min_lwradin2,max_lwradin2,n_lwradin2,avg_lwradout,std_lwradout,min_lwradout,max_lwradout,n_lwradout,avg_lwradout2,std_lwradout2,min_lwradout2,max_lwradout2,n_lwradout2,avg_swradin,std_swradin,min_swradin,max_swradin,n_swradin,avg_swradout,std_swradout,min_swradout,max_swradout,n_swradout,avg_thmir,std_thmir,min_thmir,max_thmir,n_thmir,n_comments
COHM,11/1/93,206.5985291,25.32495266,167.5,251.3,68,,,,,0,,,,,0,,,,,0,276.3652168,164.5879747,23.6,577.6,69,129.489854,78.56843887,2.4,287,69,,,,,0,36
COHM,12/1/93,202.7744957,33.21962097,156.2,271.8,1388,,,,,0,,,,,0,,,,,0,345.080353,172.604844,38.1,782,1018,185.7732709,119.7786837,0,511,1388,,,,,0,1388
COHM,1/1/94,201.4822321,22.04835618,165.9,271.9,681,,,,,0,,,,,0,,,,,0,341.8966272,172.926225,23.5,667.2,682,214.8217012,107.9610988,6.2,435.3,682,,,,,0,26
COHM,2/1/94,189.1130238,39.62309476,136.8,266.1,215,,,,,0,,,,,0,,,,,0,172.7967441,146.2661289,0,530.3,215,136.8637209,111.7931491,0,367.5,215,,,,,0,0
COHM,3/1/94,156.6395162,29.00107142,124.4,230.7,248,,,,,0,,,,,0,,,,,0,59.15000006,82.19033142,0,346.3,248,43.35403236,59.35140048,0,276.4,248,,,,,0,0
COHM,4/1/94,175.1945834,31.81118598,126.2,252.8,240,,,,,0,,,,,0,,,,,0,2.976249982,9.543258541,0,60.6,240,2.11166667,7.491330363,0,39.6,240,,,,,0,0
COHM,5/1/94,150.9597559,31.21411856,113.4,226.8,246,,,,,0,,,,,0,,,,,0,0,0,0,0,246,0,0,0,0,246,,,,,0,0
COHM,6/1/94,156.2241666,31.01744905,119,231.7,240,,,,,0,,,,,0,,,,,0,0,0,0,0,240,0,0,0,0,240,,,,,0,0
COHM,7/1/94,157.3016132,34.73151264,118.1,257.4,248,,,,,0,,,,,0,,,,,0,0,0,0,0,248,0,0,0,0,248,,,,,0,0
COHM,8/1/94,139.9092743,25.39743126,113.2,225.6,248,,,,,0,,,,,0,,,,,0,0.151612906,1.772689118,0,27.7,248,0.051612902,0.806450086,0,12.7,248,,,,,0,0
COHM,9/1/94,160.7338229,23.51924859,123,211.4,68,,,,,0,,,,,0,,,,,0,6.720588183,12.54901492,0,39.6,68,4.975000061,10.4325322,0,39.7,68,,,,,0,0
COHM,11/1/94,185.5470348,24.90475335,153.3,250.4,978,,,,,0,,,,,0,,,,,0,320.3358317,196.8952911,44.2,774,974,248.019223,133.0211084,37.1,520.8,978,,,,,0,0
COHM,12/1/94,212.5724464,36.01896286,153,285.3,2232,,,,,0,,,,,0,,,,,0,325.8051374,181.9328485,42.4,764,2219,258.8474653,124.757058,35.4,634.5,2229,,,,,0,3
COHM,1/1/95,209.6830867,29.26109757,166.4,276.8,2229,,,,,0,,,,,0,,,,,0,300.0520196,183.4455504,27.9,785,2228,232.8144907,123.409093,24.7,476.1,2229,,,,,0,0
COHM,2/1/95,194.0571428,35.37882301,134.4,277.3,2016,,,,,0,,,,,0,,,,,0,185.4073414,165.7086105,0,637,2016,137.4338789,110.5105938,0.1,436,2016,,,,,0,0
COHM,3/1/95,170.3274767,37.88835042,123.5,250.6,2231,,,,,0,,,,,0,,,,,0,62.06535188,86.47121992,0,410.8,2231,48.6638279,63.9938722,0,305.3,2231,,,,,0,0
COHM,4/1/95,159.7700926,34.69711672,107.2,232.9,2160,,,,,0,,,,,0,,,,,0,5.288379631,13.97727825,0,150.5,2160,4.554814812,10.54345844,0,94.7,2160,,,,,0,0
COHM,5/1/95,160.6226254,30.69135793,112.5,236.6,2232,,,,,0,,,,,0,,,,,0,0.011335126,0.080013507,0,1.1,2232,0.031317205,0.11290732,0,1.3,2232,,,,,0,0
COHM,6/1/95,151.9358336,31.66441461,112.9,253,2160,,,,,0,,,,,0,,,,,0,0.001898148,0.028731219,0,0.8,2160,0.012546296,0.078162061,0,1.4,2160,,,,,0,0
COHM,7/1/95,152.468862,30.62280861,113.9,233.9,2232,,,,,0,,,,,0,,,,,0,0.002419355,0.032016745,0,0.8,2232,0.011424731,0.063720977,0,1.1,2232,,,,,0,0
COHM,8/1/95,147.6669803,28.56883963,113.4,250.8,2232,,,,,0,,,,,0,,,,,0,1.064784945,3.941177305,0,42.3,2232,0.974507168,3.302412044,0,33.5,2232,,,,,0,0
COHM,9/1/95,162.4518519,31.46414422,109.6,232.3,2160,,,,,0,,,,,0,,,,,0,28.79319448,49.28755405,0,261.7,2160,22.12351848,35.49812662,0,183.4,2160,,,,,0,0
COHM,10/1/95,165.002733,35.00311446,117.2,243.6,2232,,,,,0,,,,,0,,,,,0,132.7116937,135.2774611,0,534.7,2232,100.6380377,96.77726883,0,375.1,2232,,,,,0,0
COHM,11/1/95,176.8970186,33.68011253,128.6,262.2,1543,,,,,0,,,,,0,,,,,0,273.3334228,176.0303346,11.3,738.7,2238,211.9899062,119.6295815,10.2,521.3,2239,-7.581731336,2.337242975,-14.98,-2.97,335,361
COHM,12/1/95,221.6861837,25.85252724,183.2,283.9,1187,226.0360573,26.48895233,180,299.8,1187,287.3047177,11.65252759,253,321.2,1187,291.913985,10.88504935,258.2,319.3,1187,339.5114081,185.9297325,37.4,821,2393,263.4314322,129.0532285,32.3,594.1,2402,-5.42642738,2.828934268,-38.59,1.09,2410,0
COHM,1/1/96,224.8191997,28.7852106,171.9,286.5,2974,230.0666441,29.34756017,177.7,295.5,2974,275.9536986,10.94345863,242.5,319.1,2974,281.7754202,10.77909909,246,316.8,2974,283.7965994,176.4619754,18.5,753,2970,225.8172495,129.599536,15.9,694.7,2974,-6.824573343,2.136397246,-13.98,-0.03,2250,0
COHM,2/1/96,191.8390805,30.70491365,140.8,284.3,2784,198.1966594,31.40981996,137.6,293.9,2784,253.231322,20.36803012,214.3,305.3,2784,259.0427442,21.88310966,200.2,309.9,2784,184.2928162,154.1792869,0,674.6,2784,138.5938577,106.9672205,0,460.2,2784,,,,,0,56
COHM,3/1/96,188.0365592,32.20396248,132.8,255.1,2976,189.5197918,34.5070059,110.1,277.6,2976,225.652957,15.63347475,190,286.1,2976,226.6941533,19.45175264,171.3,298.4,2976,55.14553085,79.38450831,0,383.2,2976,42.89334681,57.93185819,0,276.2,2976,,,,,0,1112
COHM,4/1/96,185.3115279,35.70517655,126.3,258.9,2880,186.8762501,38.66708319,117.8,272.3,2880,221.5093401,15.95368482,192.4,264.5,2880,222.4532291,20.78211362,171.4,277.8,2880,4.039583331,10.43991701,0,90.2,2880,3.37552083,7.924638621,0,63.7,2880,,,,,0,2039
COHM,5/1/96,171.8941868,30.4348355,118.3,241.8,2976,165.9790995,32.81618071,95.7,246.6,2976,207.2029569,11.37185521,182.8,248,2976,201.5606855,18.17158024,128.6,267.2,2976,0.005981183,0.047926888,0,1.2,2976,0.014919355,0.078681533,0,1.2,2976,,,,,0,2922
COHM,6/1/96,161.6913889,32.02118413,121.4,246.5,2880,155.820382,34.55885815,78.1,257,2880,203.1507639,13.74497457,176.7,253.9,2880,196.7436804,20.01795093,135.5,271.5,2880,0.001805556,0.02350505,0,0.6,2880,0.015729167,0.077017767,0,1,2880,,,,,0,2851
COHM,7/1/96,146.1088037,23.27375922,117.4,238.9,2976,139.9702621,26.72937101,71,247.3,2976,200.0822581,10.51023995,178.7,242.8,2976,192.8023186,17.19199457,133.4,258.3,2976,6.72E-05,0.003666178,0,0.2,2976,0.012668011,0.068187621,0,1.1,2976,,,,,0,2975
COHM,8/1/96,173.786492,33.70021375,121.8,263.1,2976,174.25084,36.37215175,102.9,283.4,2976,215.2150536,16.55612437,188.8,278.4,2976,214.4845766,22.16667659,159.1,291.9,2976,1.080645161,3.960441582,0,36.5,2976,0.923588712,3.047518579,0,24.8,2976,,,,,0,2534
COHM,9/1/96,153.4220486,26.07504691,117.6,241.5,2880,148.7484028,29.22866996,92.6,258.6,2880,205.8666666,8.841548452,184.3,241.3,2880,201.4479862,13.41417391,153.2,258.7,2880,29.14232632,53.23387613,0,256.2,2880,20.80954861,35.07167476,0,168,2880,,,,,0,1457
COHM,10/1/96,164.3871975,31.87330291,115.3,230.9,2976,163.4996976,35.29356182,81.7,246.4,2976,215.9376009,12.8927904,187.5,248.9,2976,215.0636425,17.59772899,156.9,262.5,2976,136.9527219,140.3766963,0,533.1,2976,101.2501345,98.05534572,0,370.9,2976,,,,,0,408
COHM,11/1/96,192.1450765,34.7066991,130.9,273.69,2876,201.4984701,35.4587642,114.2,287.9,2876,254.065509,19.06726059,203.2,307.7,2879,258.9479334,21.00485412,181.2,306.4,2879,273.0204452,175.0560209,10.8,765.7,2876,206.8085535,115.0934279,9.2,566.8,2876,,,,,0,4
COHM,12/1/96,225.4333379,29.90001729,177.15,288.82,2975,236.7158991,26.92612049,198.2,297,2975,280.4996638,11.15912397,246.7,313.9,2975,285.3830254,9.2195713,251,310.6,2975,325.0010451,185.1005706,32.1,813,2967,260.5363361,133.0648269,28.3,633.6,2975,,,,,0,8
COHM,1/1/97,234.5150649,29.89542447,180.75,311.23,2533,245.2434265,27.20284753,200.1,317.7,2533,276.4037111,11.62821789,242.9,312.1,2533,281.6108963,9.754973394,250,306.7,2533,266.7808922,178.7984173,27.4,810.5,2533,227.7894592,134.0217235,23.9,595.7,2533,,,,,0,0
COHM,5/1/97,155.2481975,21.19801742,124.5,215.2,749,152.7432575,21.10796863,121.3,207.1,749,206.6313755,8.471311339,188.9,237.5,749,205.0775699,11.68143099,181.7,245.7,749,0.000400534,0.010961762,0,0.3,749,0.01388518,0.100104183,0,1.3,749,,,,,0,748
COHM,6/1/97,165.8320629,30.92921531,114.3,237.8,1784,160.8668723,32.95362202,105,246,1784,208.9861547,11.10476709,186.5,251.6,1784,205.1988229,15.99802518,171.4,259.8,1784,0.000112108,0.003347309,0,0.1,1784,0.009865471,0.059377817,0,0.8,1784,,,,,0,1781
COHM,11/1/97,253.2177482,25.43620203,172.8,286.7,524,257.8541985,25.81105633,183.8,289.4,524,279.1597329,14.75540952,236.3,308.1,524,285.1265259,14.7982957,249.9,310.5,524,206.7452104,153.6659058,33.9,699.1,522,157.7423666,102.8970463,26.9,502.5,524,,,,,0,2
COHM,12/1/97,230.6629704,33.75500009,165.5,296.6,2976,234.5523187,34.44251927,178.2,298.2,2976,276.6590724,13.79827215,233.8,319.2,2976,281.5184477,12.81078837,243.6,313.2,2976,295.6217507,180.2212603,24.4,842.4,2947,238.8136746,132.9596997,21.2,604.8,2969,,,,,0,30
COHM,1/1/98,224.066678,32.74509502,168.2,290.6,2956,228.7076453,33.06064609,176,295.4,2956,272.6201962,13.25003814,228.3,319.2,2956,277.8211098,12.07567095,236,309.7,2956,282.0811884,175.9450722,23.1,766.3,2945,231.2869757,128.2674218,20.9,755.5,2956,,,,,0,9
COHM,2/1/98,218.9859376,41.7474469,140.7,303.3,2688,225.2098214,42.37338878,150.3,310.4,2688,253.6393601,17.52564512,204.4,295.7,2688,259.4776785,18.01018155,207.9,296.7,2688,156.7704985,142.6360275,0,739.9,2688,133.7527902,110.9351348,0,561.3,2688,,,,,0,0
COHM,3/1/98,175.3036625,35.6765675,125.6,248.3,2976,175.6770831,38.28346962,114.9,257.1,2976,217.1336358,12.76272123,187.1,255.8,2976,216.8773185,16.11295768,177.2,260.3,2976,64.72930108,93.08382813,0,470.2,2976,53.22819225,71.53302152,0,340.1,2976,,,,,0,0
COHM,4/1/98,147.9319446,25.3088114,118.2,237.7,2880,138.3338196,30.81700867,96.2,244.6,2880,197.3134028,13.52040098,167.6,245.9,2880,187.9788195,20.31958584,150.7,252,2880,5.035277768,15.0392289,0,184.9,2880,4.403160817,11.02947565,0,116.6,2879,,,,,0,1
COHM,5/1/98,171.1260752,33.15245854,122.6,249.2,2976,166.4930108,37.82430344,111.7,260.4,2976,208.8402217,15.68770857,181.5,261.8,2976,203.9482191,21.56536859,163.7,269.4,2976,0.009946237,0.07809839,0,1.6,2976,0.034173388,0.120774207,0,1.5,2976,,,,,0,0
COHM,6/1/98,186.410868,29.64695639,127.3,248.4,2880,189.1463193,30.51523437,136.4,259.1,2880,220.9167708,11.63506546,196.5,255.1,2880,222.0098264,15.07956611,187,263.4,2880,0.004930556,0.051277484,0,1.1,2880,0.033402778,0.124110805,0,1.5,2880,,,,,0,0
COHM,7/1/98,167.2842406,29.65181242,117.6,230.5,2976,161.18293,31.28964839,108.2,237.8,2976,205.5650537,12.67507188,178.1,243.5,2976,198.9986559,18.75227611,165.7,250,2976,0.004637097,0.046656291,0,1.2,2976,0.030712366,0.12336036,0,2.7,2976,,,,,0,0
COHM,8/1/98,159.9919018,26.4729941,116.1,223.2,2976,154.2276211,29.16850114,107.7,229.3,2976,204.2921372,12.92031165,179.4,237.3,2976,197.8445229,18.92869141,163.7,242.7,2976,1.053158602,3.78769926,0,33.5,2976,0.976646505,3.132720618,0,25.1,2976,,,,,0,0
COHM,9/1/98,159.9712154,30.61883217,116.1,256.2,2880,150.2375,34.27207364,101.7,266.2,2880,199.3920833,14.42216005,176.9,265.4,2880,188.3432638,20.67080829,161.9,268.8,2880,28.90618055,50.10872354,0,290.8,2880,22.20937498,35.90585652,0,183.9,2880,,,,,0,0
COHM,10/1/98,176.1477467,29.48109045,127.5,252.9,2796,177.682475,30.88036482,123.9,261.1,2796,224.2051144,13.05794243,198,263,2796,225.2030045,16.38500745,192.1,269.2,2796,132.0058297,139.9328798,0,604.1,2796,98.66863367,97.12714554,0,336.3,2796,,,,,0,0
COHM,11/1/98,184.9045026,28.84876565,143.3,266.7,1910,,,,,0,251.853665,13.33912081,218.8,288.9,1910,,,,,0,311.7234924,178.114478,29.9,722.3,1907,243.8725654,119.4174214,25.4,514.5,1910,,,,,0,1910
COHM,12/1/98,205.5120968,27.52792635,162.2,277.2,2976,,,,,0,277.6563845,13.22010781,235,312.2,2976,,,,,0,362.059804,192.014496,45.2,781.5,2958,272.2702619,125.2760856,36.4,562.2,2976,,,,,0,2976
COHM,1/1/99,228.1552408,32.51720487,173.6,287.9,1870,233.621067,23.65350147,198.1,288.4,1106,284.0059199,11.14846377,255.5,323.4,2973,296.8999732,8.840336189,269.1,316.82,1104,267.9788871,176.595988,18.2,830.4,2965,197.9342186,120.6565494,14.1,607.4,2975,,,,,0,2976
COHM,2/1/99,,,,,0,200.1305804,27.36651548,151.3,276.6,2688,255.1149554,16.12833898,214.8,300.8,2688,262.5793899,19.83644655,212.86,306.88,2688,184.3620536,163.1528308,0,587.5,2688,128.744494,103.7326687,0,385.8,2688,,,,,0,2688
COHM,3/1/99,,,,,0,170.5798387,35.14254251,119.8,260.9,2976,219.6875002,12.41818717,194.7,257.2,2976,217.2209206,16.15288619,185.46,261.09,2976,60.27335349,84.3254819,0,453.2,2976,48.76582659,65.18795688,0,348,2976,,,,,0,2976
COHM,4/1/99,,,,,0,157.5238195,37.55971878,109.3,249.8,2880,206.0825,14.17184507,183.8,250.2,2880,196.0379063,20.45604636,164.85,254.34,2880,5.344583328,13.32236083,0,105.1,2880,4.515000002,10.54840104,0,67.9,2880,,,,,0,2880
COHM,5/1/99,,,,,0,139.9045028,27.92569917,97.4,236.1,2976,200.0054772,10.87497776,179.7,240.9,2976,189.1316769,17.63810559,153.81,243.13,2976,0.000672043,0.009324332,0,0.2,2976,0.027923388,0.103501013,0,1.3,2976,,,,,0,2976
COHM,6/1/99,,,,,0,176.3625695,35.065077,116.3,253,2880,213.0772571,13.0074552,189.4,256.5,2880,206.5190035,17.83531961,171.8,261.16,2880,0.004791667,0.038977354,0,0.8,2880,0.037777778,0.119582722,0,1.2,2880,,,,,0,2880
COHM,7/1/99,,,,,0,169.3004704,41.35842753,108.4,262.6,2976,213.5671371,16.68335288,183.5,252,2976,206.7281082,23.48626364,162.06,255.38,2976,0.001680108,0.025873639,0,0.7,2976,0.029771506,0.101554714,0,1.2,2976,,,,,0,2976
COHM,8/1/99,,,,,0,141.0769488,30.90904017,101.2,222.1,2976,198.2751344,11.40993382,175.3,236.2,2976,185.5399832,17.07988714,158.04,237.43,2976,1.050772851,3.601248069,0,26.7,2976,1.020329301,3.165332168,0,21.9,2976,,,,,0,2976
COHM,9/1/99,,,,,0,181.0384027,38.17711972,111.9,274.7,2880,214.8450694,16.107728,180.2,266.2,2880,209.3442604,20.40275732,161.13,270.62,2880,25.63190972,43.82744081,0,250.2,2880,21.80857639,36.3935537,0,182.7,2880,,,,,0,2880
COHM,10/1/99,,,,,0,169.1661627,28.98321381,122.1,247.3,2976,224.7740592,14.83165614,185.1,263.6,2976,223.2995328,17.9083938,177.96,266.06,2976,139.6922716,144.2511459,0,576.6,2976,98.75493949,92.91793891,0,338.3,2976,,,,,0,2976
COHM,11/1/99,,,,,0,196.5707637,32.51267205,142.4,281.3,2880,261.7641665,14.68827326,213.5,299.4,2880,263.8805416,15.10001803,213.72,297.52,2880,249.0309724,176.3413069,4,714.8,2880,176.5014237,114.820512,3,488.9,2880,,,,,0,2880
COHM,12/1/99,216.4517664,27.12799072,168.1,269,1302,210.6725805,27.78676354,172.8,279.3,2976,282.7379705,10.87946848,250.1,308.4,2976,285.1333469,10.62835592,243.83,315.02,2976,338.3771205,184.7069708,25.1,848.9,2959,224.4729722,110.098742,17.4,535.5,2971,,,,,0,1688
COHM,1/1/00,208.0699933,28.36020608,166.2,278.7,2976,230.0539314,29.40406398,177.5,295.4,2976,283.9561155,10.18628353,254.6,312.1,2976,287.0627988,11.214243,252.38,317.41,2976,309.0989218,186.8869975,27.2,785.9,2967,178.5384072,96.92885447,15.6,465,2976,,,,,0,9
COHM,2/1/00,189.4059626,31.24489165,135.7,267.3,2784,206.704957,28.4944369,136.9,280,2784,256.7723059,15.1459199,220.3,298.3,2784,259.3301903,17.94479145,199.7,309.49,2784,188.5398345,166.11268,0,664.8,2784,107.1291307,85.27039446,0,335,2784,,,,,0,233
COHM,3/1/00,179.768918,32.61395972,133.4,252.7,2976,192.2614583,30.6492705,136,269.7,2976,229.3542674,11.43216968,201.7,256.1,2976,228.0291097,16.91176252,182.17,271.38,2976,58.60672045,85.60813932,0,372.1,2976,36.00006716,49.04596398,0,213,2976,,,,,0,1369
COHM,4/1/00,175.7650348,34.18133976,127.5,260.9,2880,183.6539931,36.54981564,128.5,279.8,2880,218.2018056,15.71969741,191.7,260.3,2880,213.2717116,22.53582447,161.88,277.74,2880,4.693090276,12.25511909,0,171.2,2880,3.802812507,9.378901256,0,126.6,2880,,,,,0,2299
COHM,5/1/00,167.4018145,35.0979651,119.8,241.8,2976,171.3600807,36.73970185,110.4,258.7,2976,209.5826277,13.46283825,181.1,245.8,2976,200.3624397,23.21340177,132.98,260.39,2976,0.009711022,0.075746929,0,1.6,2976,0.055006721,0.138861398,0,1.3,2976,,,,,0,2932
COHM,6/1/00,158.4457985,36.79364934,119.1,259.2,2880,161.3357292,41.73401229,92.5,281.3,2880,206.0614584,18.53176322,184.1,264.8,2880,196.1117745,27.70707397,143.65,277.52,2880,0.001458333,0.027979766,0,0.9,2880,0.03763889,0.112070949,0,1.5,2880,,,,,0,2878
COHM,7/1/00,154.2787634,27.0283277,113.2,243,2976,159.327117,28.75628384,98.7,256.6,2976,206.5546707,11.82873448,180.9,247.7,2976,197.50667,21.57887004,131.71,261.97,2976,0.00194958,0.023687415,0,0.5,2975,0.060860794,0.167050548,0,2,2974,,,,,0,2974
COHM,8/1/00,154.2662299,35.95609574,113.4,256.9,2976,156.8243952,36.39174398,88.7,271,2976,204.089113,14.73548488,182.6,255,2976,194.1400403,23.79667137,144.61,267.29,2976,1.117949579,3.688657502,0,30.4,2975,0.862802419,2.414359852,0,16.4,2976,,,,,0,2665
COHM,9/1/00,152.7019792,34.60735694,113.9,249.5,2880,156.7084375,36.03322064,93.9,274.5,2880,204.6917707,15.47779505,182,256.1,2880,194.7162118,25.44241724,140.78,271.61,2880,27.73284724,52.66131318,0,349.3,2880,16.85118056,28.64393896,0,179.9,2880,,,,,0,1583
COHM,10/1/00,159.6845767,31.9407491,112.4,236.5,2976,167.2830645,34.02712766,96.3,252.8,2976,217.6276545,12.26113604,194.3,253.5,2976,211.9886726,19.83547821,163.36,269.16,2976,148.4533267,151.3032244,0,635.2,2976,86.62930107,82.11088461,0,287.3,2976,,,,,0,701
COHM,11/1/00,211.9425695,39.77675576,130.3,281.6,2880,222.3980903,38.27823893,138.5,293.1,2880,265.3374998,18.69180323,211.7,305.2,2880,267.0016634,21.10444962,193.23,310.72,2880,239.6464721,173.3226085,7.3,702.5,2877,154.4027112,105.9686405,4,470.1,2877,,,,,0,68
COHM,12/1/00,212.5283601,29.23572211,173.3,274.3,2976,220.063172,29.66968884,176.3,285.3,2976,280.470363,9.399472976,246,310.1,2976,281.642379,9.937606365,246.35,312.82,2976,333.0105685,184.5359352,37.2,795,2971,233.3111559,116.9442941,26,552,2976,,,,,0,29
COHM,1/1/01,205.9588372,30.7828299,164.3,269.1,2976,214.1751681,30.76951235,166.1,282.1,2976,270.7915994,9.819116094,242.7,301.3,2976,272.2828863,10.57153007,237.58,303.97,2976,298.6640336,179.7151878,32.3,797.7,2975,220.5496303,117.9084583,29.5,585.9,2976,,,,,0,16
COHM,2/1/01,195.4375744,27.13450915,138.2,264.9,2688,204.3725445,27.66930567,138.2,279.2,2688,259.9398065,12.57998456,225.3,299.8,2688,262.1732403,14.75080553,209.97,306.24,2688,178.1960565,154.3835472,0,599.3,2688,111.2919643,89.3803363,0,348.5,2688,,,,,0,168
COHM,3/1/01,163.4824935,32.05235437,125.2,252.1,2976,164.5920699,35.12931182,100.1,261.7,2976,218.9722782,11.97001473,195.7,259.8,2976,214.0375304,17.64757831,175.98,270.03,2976,61.70295698,90.90095764,0,534.8,2976,40.85026886,56.74534836,0,237,2976,,,,,0,1325
COHM,4/1/01,171.7326388,36.4404102,122.7,263.8,2880,169.7930903,40.71583987,100.2,279.3,2880,209.771875,13.67450916,183.7,260.5,2880,201.1928402,21.71028338,153.96,275.93,2880,4.434236119,12.56421903,0,182.6,2880,3.52416667,8.263899701,0,54.1,2880,,,,,0,2316
COHM,5/1/01,160.7942541,28.83109929,117.2,250.1,2976,157.7074596,34.16714214,99.8,262.1,2976,209.0984207,15.7066952,183.5,256.9,2976,200.3926613,24.48543206,146.85,274.7,2976,0.001008065,0.017935232,0,0.6,2976,0.013709678,0.072089221,0,1.2,2976,,,,,0,2976
COHM,6/1/01,172.5540972,31.04231891,121.3,244.3,2880,171.0871875,35.92501224,106.9,263.2,2880,210.8179862,12.16397528,186.5,251.8,2880,203.6674339,20.31555148,155.22,269.81,2880,0.00125,0.021698461,0,0.8,2880,0.006805556,0.055432906,0,1.6,2880,,,,,0,2878
COHM,7/1/01,159.0263778,28.265152,118.6,237.2,2976,156.2325941,32.84757479,97.1,251.8,2976,206.6904905,10.59089698,183.2,239.5,2976,198.1048789,20.36896401,142.01,254.76,2976,0.000201613,0.007775831,0,0.4,2976,0.004737903,0.035090259,0,0.6,2976,,,,,0,2975
COHM,8/1/01,155.2965727,32.50599138,111.6,232.8,2976,142.5848791,36.30377292,77.7,247.4,2976,193.2843415,8.575454673,172.5,223.6,2976,175.1257057,21.25833872,114.31,233.35,2976,1.125067206,4.062051071,0,37.2,2976,1.102419354,3.592138127,0,30.2,2976,,,,,0,2722
COHM,9/1/01,155.6762501,26.0676787,119.7,246.4,2880,152.506493,29.70414309,105.3,268.3,2880,202.9073611,12.17054761,176.6,248.1,2880,194.6495519,20.03995939,139.93,259.8,2880,28.85194449,51.68020365,0,313.9,2880,21.93333334,36.95011248,0,228.3,2880,,,,,0,1625
COHM,10/1/01,153.4590054,26.73778985,118.6,248.3,2976,155.3081988,30.90704827,92.7,265.7,2976,220.2806451,13.95951843,189.8,256.3,2976,215.9590089,20.73844267,165.05,265.14,2976,143.7314517,141.1011396,0,553.4,2976,99.17271503,90.82283948,0,341.8,2976,,,,,0,652
COHM,11/1/01,186.316962,26.03010133,138.4,260.7,2877,192.8074809,27.21516553,136.2,270.7,2874,260.6455683,16.72116609,216.8,299.9,2877,261.1907861,18.59694407,196.43,310.25,2875,281.8997218,179.3007009,13.3,726.6,2876,169.412587,96.8809766,11.4,403.3,2876,,,,,0,6
COHM,12/1/01,209.1083667,24.96421172,164,271.1,2976,214.6930445,25.44581802,164.1,286.5,2976,292.6456654,10.28137904,262.9,321.2,2976,293.7855948,10.71135039,254.5,323.31,2976,354.770364,189.0660618,28.8,819.6,2966,196.7572916,92.13482613,18.4,452.5,2976,,,,,0,10
COHM,1/1/02,227.7612232,28.35771906,175.1,285.4,2976,233.8388106,29.52162379,178.8,296.4,2976,290.8369287,11.919769,250.8,317.4,2976,292.0778295,12.71871352,250.85,319.94,2976,285.5784204,193.6784569,22.6,782.1,2975,166.6538642,100.3424566,15.6,501.2,2976,,,,,0,42
COHM,2/1/02,201.5359749,36.1834138,147.3,277.9,2688,209.4544643,36.96845676,145.1,297.1,2688,263.2773439,15.25884622,231.1,301.5,2688,264.3263841,17.52855876,213.98,307.09,2688,163.6026787,145.9725096,0,734.1,2688,96.22499997,82.70663581,0.1,368.8,2688,,,,,0,168
COHM,3/1/02,177.3714046,33.04279738,126.7,253.1,2976,181.9981519,34.99085837,114.8,272.6,2976,230.7739248,12.8867725,201.1,262.6,2976,227.7196068,18.13789914,180.11,275.03,2976,59.18981855,84.29714125,0,397.3,2976,38.51381048,51.59482157,0,224.6,2976,,,,,0,1306
COHM,4/1/02,160.6081945,27.25170575,123.9,233.5,2880,159.2112499,31.29048986,104.7,254.2,2880,212.6813543,12.93249601,190.4,253.1,2880,204.8929583,20.27823632,164.56,265.55,2880,4.016319441,10.48518584,0,100.2,2880,3.246770828,7.641475397,0,69.6,2880,,,,,0,2265
COHM,5/1/02,183.1131048,37.60429668,121.4,253.2,2976,184.408098,42.00339302,105.3,268.2,2976,220.1164987,16.06534099,187.4,265.2,2976,214.3884441,22.50763052,157.53,278.3,2976,0.002789916,0.033446119,0,1.1,2975,0.021135753,0.103518863,0,2.5,2976,,,,,0,2960
COHM,6/1/02,161.5628474,30.78423542,112.9,242.8,2880,152.1176387,33.742393,90.3,263.4,2880,202.1508682,11.41281219,177.9,247.2,2880,186.6966631,22.91859067,133.14,261.49,2880,0.0140625,0.098443018,0,1.4,2880,0.017124002,0.100010052,0,2.6,2879,,,,,0,2823
COHM,7/1/02,140.4241599,19.97615532,117.7,220,2976,132.1716398,23.30789831,95.7,227,2976,197.1790658,8.94044555,176.6,231,2976,182.452836,19.80219997,124.03,238.15,2976,6.72E-05,0.002591944,0,0.1,2976,0.006115592,0.047060471,0,1.2,2976,,,,,0,2976
COHM,8/1/02,150.8096439,28.88068715,112.8,222.7,2976,139.6078629,33.75861713,87.1,245.8,2976,197.0197916,11.22282083,179.4,236,2976,180.3980879,23.71489632,124.13,244.97,2976,0.97251344,3.793486309,0,36.5,2976,0.785517473,2.745573418,0,25,2976,,,,,0,2677
COHM,9/1/02,173.0087154,30.45696735,124.9,241.4,2880,171.198125,32.43217303,101.9,261.5,2880,211.3379862,12.21686026,185.2,255.8,2880,202.6912742,19.25117582,158.8,265.45,2880,28.82065966,53.54819644,0,385.9,2880,21.11579863,35.12081391,0,166.1,2880,,,,,0,1715
COHM,10/1/02,175.3347447,29.62334128,132.4,245.3,2976,178.314785,31.45603004,115.6,255.3,2976,224.0219423,12.14009416,198.1,261.5,2976,220.4041935,16.72871621,179.84,271.76,2976,131.0259745,131.5891896,0,542.6,2976,97.27735213,94.63576738,0,365.1,2976,,,,,0,605
COHM,11/1/02,195.0628472,31.64006446,143.7,257.3,2880,201.6298265,32.13173139,138.9,280,2880,250.3797917,10.19277452,220,281.3,2880,249.0900729,12.7100627,209.02,286.44,2880,270.2660762,174.0448529,8.3,686.4,2880,205.5518056,124.0905988,6.6,533,2880,,,,,0,6
COHM,12/1/02,219.1148184,31.1541558,163.9,285.3,2976,226.073824,31.79081722,162.1,296.3,2976,274.6612568,12.79081734,236.9,306.2,2976,273.585299,13.17552692,226.26,307.12,2976,323.7491758,186.9223751,11.6,894.6,2973,248.3734209,133.4036862,9.3,591.9,2976,,,,,0,17